FW1648 Weather Reports


time (UTC)temp
C
wind
direction
speed
KPH
gust
KPH
rain 1hr
cm
rain 24hr
cm
rain mn
cm
humidity
%
barometer
mb
20260503202805 16 224 8.0 24.1 0.00 0.00 0.00 45 1010.0
20260503201805 16 242 4.8 20.9 0.00 0.00 0.00 45 1010.1
20260503201304 16 260 9.7 29.0 0.00 0.00 0.00 43 1010.1
20260503200804 16 208 4.8 24.1 0.00 0.00 0.00 45 1010.2
20260503200304 16 219 11.3 25.7 0.00 0.00 0.00 44 1010.2
20260503194804 16 209 9.7 29.0 0.00 0.00 0.00 42 1010.3
20260503194305 17 214 9.7 22.5 0.00 0.00 0.00 45 1010.4
20260503193304 16 252 6.4 24.1 0.00 0.00 0.00 43 1010.5
20260503192804 16 247 8.0 19.3 0.00 0.00 0.00 45 1010.6
20260503192305 16 238 4.8 16.1 0.00 0.00 0.00 43 1010.7
20260503191805 16 249 4.8 29.0 0.00 0.00 0.00 45 1010.8
20260503191304 16 276 8.0 22.5 0.00 0.00 0.00 43 1010.9
20260503190805 16 226 8.0 20.9 0.00 0.00 0.00 44 1011.0
20260503190305 16 248 6.4 12.9 0.00 0.00 0.00 44 1011.1
20260503185804 16 216 8.0 20.9 0.00 0.00 0.00 42 1011.0
20260503184805 16 225 8.0 19.3 0.00 0.00 0.00 43 1011.2
20260503184304 16 222 11.3 32.2 0.00 0.00 0.00 41 1011.2
20260503183804 16 237 8.0 19.3 0.00 0.00 0.00 42 1011.3
20260503183304 16 227 11.3 32.2 0.00 0.00 0.00 42 1011.4
20260503182804 16 232 11.3 29.0 0.00 0.00 0.00 41 1011.4
20260503182305 16 241 9.7 20.9 0.00 0.00 0.00 41 1011.5
20260503181804 16 259 8.0 19.3 0.00 0.00 0.00 44 1011.4
20260503180804 16 283 8.0 16.1 0.00 0.00 0.00 43 1011.7
20260503180304 16 294 9.7 27.4 0.00 0.00 0.00 39 1011.7
20260503175305 16 240 11.3 33.8 0.00 0.00 0.00 40 1011.8
20260503173804 16 224 9.7 19.3 0.00 0.00 0.00 44 1012.2
20260503172804 15 285 8.0 19.3 0.00 0.00 0.00 44 1012.2
20260503172305 15 241 9.7 19.3 0.00 0.00 0.00 43 1012.3
20260503171804 16 266 6.4 27.4 0.00 0.00 0.00 45 1012.5
20260503170804 16 247 9.7 22.5 0.00 0.00 0.00 45 1012.6
20260503170304 15 210 9.7 19.3 0.00 0.00 0.00 45 1012.7
20260503150805 13 242 8.0 14.5 0.00 0.00 0.00 48 1013.9
20260503150304 13 258 8.0 22.5 0.00 0.00 0.00 46 1013.9
20260503140305 12 253 9.7 20.9 0.00 0.00 0.00 50 1014.0
20260503131304 9 245 3.2 12.9 0.00 0.00 0.00 63 1014.3
20260503130804 8 218 3.2 14.5 0.00 0.00 0.00 64 1014.4
20260503130304 8 258 3.2 4.8 0.00 0.00 0.00 66 1014.4
20260503110804 2 187 1.6 3.2 0.00 0.00 0.00 77 1014.5
20260503110305 2 188 1.6 4.8 0.00 0.00 0.00 77 1014.5
20260503090304 0 243 0.0 0.0 0.00 0.00 0.00 85 1015.2
20260503081304 0 243 0.0 0.0 0.00 0.00 0.00 89 1015.3
20260503080304 0 243 0.0 3.2 0.00 0.00 0.00 89 1015.3
20260503072305 0 243 0.0 0.0 0.00 0.00 0.00 90 1015.4
20260503071804 0 243 0.0 0.0 0.00 0.00 0.00 90 1015.4
20260503071304 0 243 0.0 0.0 0.00 0.00 0.00 90 1015.4
20260503070803 0 243 0.0 0.0 0.00 0.00 0.00 90 1015.4
20260503070304 0 243 0.0 0.0 0.00 0.00 0.00 90 1015.5
20260503060303 -1 243 0.0 0.0 0.00 0.00 0.00 89 1015.8
20260503054804 -1 243 0.0 0.0 0.00 0.00 0.00 89 1015.9
20260503054304 -1 243 0.0 0.0 0.00 0.00 0.00 89 1016.0
20260503053304 -1 243 0.0 0.0 0.00 0.00 0.00 88 1016.0
20260503052804 -1 243 0.0 0.0 0.00 0.00 0.00 88 1016.0
20260503052305 -1 243 0.0 0.0 0.00 0.00 0.00 88 1016.1
20260503051804 -1 243 0.0 0.0 0.00 0.00 0.00 88 1016.1
20260503051304 -1 243 0.0 0.0 0.00 0.00 0.00 88 1016.1
20260503050805 0 243 0.0 0.0 0.00 0.00 0.00 88 1016.1
20260503050303 0 243 0.0 0.0 0.00 0.00 0.00 88 1016.2
20260503045804 0 243 0.0 0.0 0.00 0.00 0.00 88 1016.2
20260503045305 0 243 0.0 0.0 0.00 0.00 0.00 88 1016.2
20260503044804 0 243 0.0 0.0 0.00 0.00 0.00 87 1016.3
20260503044304 0 243 0.0 0.0 0.00 0.00 0.00 87 1016.3
20260503043805 0 243 0.0 0.0 0.00 0.00 0.00 87 1016.3
20260503043304 0 243 0.0 0.0 0.00 0.00 0.00 87 1016.2
20260503042804 0 243 0.0 0.0 0.00 0.00 0.00 87 1016.2
20260503042305 0 243 0.0 0.0 0.00 0.00 0.00 87 1016.2
20260503041803 0 243 0.0 0.0 0.00 0.00 0.00 87 1016.2
20260503041304 0 243 0.0 0.0 0.00 0.00 0.00 86 1016.3
20260503040827 0 243 0.0 0.0 0.00 0.00 0.00 86 1016.3
20260503040304 0 243 0.0 1.6 0.00 0.00 0.00 86 1016.4
20260503035804 0 243 0.0 0.0 0.00 0.00 0.00 85 1016.4
20260503035305 0 243 0.0 0.0 0.00 0.00 0.00 85 1016.4
20260503034804 0 243 0.0 0.0 0.00 0.00 0.00 85 1016.4
20260503034304 0 243 0.0 0.0 0.00 0.00 0.00 85 1016.4
20260503033804 0 243 0.0 0.0 0.00 0.00 0.00 85 1016.4
20260503033304 0 243 0.0 0.0 0.00 0.00 0.00 84 1016.5
20260503032304 0 243 0.0 0.0 0.00 0.00 0.00 84 1016.5
20260503031804 0 243 0.0 0.0 0.00 0.00 0.00 83 1016.5
20260503031304 0 243 0.0 0.0 0.00 0.00 0.00 83 1016.5
20260503030304 1 243 0.0 0.0 0.00 0.00 0.00 82 1016.5
20260503025305 1 243 0.0 0.0 0.00 0.00 0.00 81 1016.5
20260503024804 1 243 0.0 0.0 0.00 0.00 0.00 81 1016.6
20260503024304 1 243 0.0 0.0 0.00 0.00 0.00 81 1016.7
20260503023804 1 243 0.0 0.0 0.00 0.00 0.00 81 1016.6
20260503023304 1 243 0.0 0.0 0.00 0.00 0.00 80 1016.6
20260503022804 2 243 0.0 0.0 0.00 0.00 0.00 79 1016.6
20260503021305 2 243 0.0 0.0 0.00 0.00 0.00 77 1016.5
20260503015805 2 243 0.0 0.0 0.00 0.00 0.00 75 1016.4
20260503015305 3 243 0.0 0.0 0.00 0.00 0.00 75 1016.4
20260503014805 3 243 0.0 0.0 0.00 0.00 0.00 74 1016.4
20260503014304 3 243 0.0 0.0 0.00 0.00 0.00 71 1016.4
20260503013807 3 243 0.0 0.0 0.00 0.00 0.00 71 1016.3
20260503013306 3 243 0.0 0.0 0.00 0.00 0.00 71 1016.3
20260503012806 3 243 0.0 0.0 0.00 0.00 0.00 71 1016.3
20260503012306 3 243 0.0 0.0 0.00 0.00 0.00 71 1016.3
20260503011805 4 243 0.0 0.0 0.00 0.00 0.00 69 1016.3
20260503011306 4 243 0.0 0.0 0.00 0.00 0.00 68 1016.3
20260503010806 5 243 0.0 0.0 0.00 0.00 0.00 67 1016.3
20260503010305 5 243 0.0 0.0 0.00 0.00 0.00 65 1016.3
20260503005305 5 243 0.0 0.0 0.00 0.00 0.00 63 1016.2
20260503004805 6 243 0.0 0.0 0.00 0.00 0.00 63 1016.1
20260503004305 6 243 0.0 0.0 0.00 0.00 0.00 60 1016.1
20260503003805 6 243 0.0 0.0 0.00 0.00 0.00 58 1016.1
20260503003305 7 243 0.0 3.2 0.00 0.00 0.00 58 1016.1
20260503002805 7 243 0.0 0.0 0.00 0.00 0.00 57 1016.1
20260503002306 7 243 0.0 0.0 0.00 0.00 0.00 56 1016.1
20260503001805 7 243 0.0 1.6 0.00 0.00 0.00 55 1016.1
20260503001306 7 243 0.0 4.8 0.00 0.00 0.00 54 1016.1
20260503000806 7 243 1.6 4.8 0.00 0.00 0.00 54 1016.0
20260503000305 7 248 0.0 3.2 0.00 0.00 0.00 54 1016.0
20260502234805 7 248 1.6 8.0 0.00 0.00 0.00 52 1016.1
20260502234305 8 248 3.2 4.8 0.00 0.00 0.00 52 1016.1
20260502233805 8 253 3.2 4.8 0.00 0.00 0.00 52 1016.1
20260502232806 8 226 3.2 9.7 0.00 0.00 0.00 50 1016.1
20260502232305 8 241 3.2 12.9 0.00 0.00 0.00 52 1016.1
20260502231805 8 229 3.2 8.0 0.00 0.00 0.00 50 1016.2
20260502231305 8 262 3.2 8.0 0.00 0.00 0.00 50 1016.2
20260502230806 8 279 1.6 4.8 0.00 0.00 0.00 51 1016.2
20260502225806 8 290 0.0 3.2 0.00 0.00 0.00 52 1016.3
20260502224806 8 306 1.6 4.8 0.00 0.00 0.00 51 1016.3
20260502224305 8 306 1.6 4.8 0.00 0.00 0.00 50 1016.3
20260502223805 8 304 3.2 9.7 0.00 0.00 0.00 49 1016.3
20260502223305 8 309 3.2 4.8 0.00 0.00 0.00 48 1016.3
20260502222806 8 283 1.6 4.8 0.00 0.00 0.00 51 1016.3
20260502222305 8 290 3.2 9.7 0.00 0.00 0.00 48 1016.3
20260502221806 8 324 1.6 8.0 0.00 0.00 0.00 49 1016.2
20260502221305 8 288 3.2 8.0 0.00 0.00 0.00 49 1016.2
20260502220805 8 339 1.6 8.0 0.00 0.00 0.00 51 1016.2
20260502220305 8 262 1.6 9.7 0.00 0.00 0.00 50 1016.2
20260502215305 8 324 1.6 4.8 0.00 0.00 0.00 51 1016.2
20260502214805 8 189 3.2 4.8 0.00 0.00 0.00 51 1016.2
20260502214305 8 306 1.6 8.0 0.00 0.00 0.00 50 1016.3
20260502213305 8 235 3.2 4.8 0.00 0.00 0.00 49 1016.3
20260502212806 8 280 3.2 9.7 0.00 0.00 0.00 48 1016.3
20260502212305 8 296 1.6 4.8 0.00 0.00 0.00 50 1016.3
20260502211805 8 269 3.2 8.0 0.00 0.00 0.00 50 1016.3
20260502211306 8 259 1.6 4.8 0.00 0.00 0.00 50 1016.4
20260502210805 8 322 1.6 4.8 0.00 0.00 0.00 48 1016.4
20260502210305 8 311 3.2 8.0 0.00 0.00 0.00 47 1016.5
20260502205805 8 308 3.2 4.8 0.00 0.00 0.00 48 1016.4
20260502205307 8 301 4.8 9.7 0.00 0.00 0.00 47 1016.4
20260502204805 8 310 3.2 8.0 0.00 0.00 0.00 48 1016.4
20260502204306 8 295 1.6 8.0 0.00 0.00 0.00 47 1016.5
20260502203805 8 332 1.6 8.0 0.00 0.00 0.00 49 1016.4
20260502203305 8 328 1.6 8.0 0.00 0.00 0.00 50 1016.6